GW4812 Weather Reports


Display with metric or nautical units.
time (UTC)temp
F
wind
direction
speed
MPH
gust
MPH
rain 1hr
in
rain 24hr
in
rain mn
in
humidity
%
barometer
mb
20260503000552 53 0 0.0 0.0 0.00 0.00 0.00 44 1011.0
20260503000052 53 242 0.0 1.0 0.00 0.00 0.00 43 1011.0
20260502235553 53 305 0.0 1.0 0.00 0.00 0.00 44 1011.0
20260502235053 54 266 0.0 0.0 0.00 0.00 0.00 43 1011.0
20260502234552 54 0 0.0 0.0 0.00 0.00 0.00 45 1011.0
20260502234052 54 246 0.0 1.0 0.00 0.00 0.00 44 1011.0
20260502233552 55 191 0.0 0.0 0.00 0.00 0.00 42 1011.0
20260502233052 55 226 0.0 0.0 0.00 0.00 0.00 42 1011.0
20260502232552 55 0 0.0 0.0 0.00 0.00 0.00 42 1011.0
20260502232053 55 266 0.0 1.0 0.00 0.00 0.00 40 1010.0
20260502231552 55 203 1.0 2.0 0.00 0.00 0.00 39 1010.0
20260502231052 56 204 0.0 1.0 0.00 0.00 0.00 39 1010.0
20260502230552 56 246 0.0 0.0 0.00 0.00 0.00 41 1010.0
20260502230053 56 82 0.0 1.0 0.00 0.00 0.00 39 1010.0
20260502225553 56 287 0.0 0.0 0.00 0.00 0.00 39 1010.0
20260502225052 56 40 0.0 1.0 0.00 0.00 0.00 41 1010.0
20260502224552 57 40 0.0 2.0 0.00 0.00 0.00 41 1010.0
20260502224055 57 213 0.0 1.0 0.00 0.00 0.00 38 1010.0
20260502223552 57 243 0.0 2.0 0.00 0.00 0.00 40 1010.0
20260502223053 57 199 0.0 0.0 0.00 0.00 0.00 38 1010.0
20260502222552 57 285 0.0 1.0 0.00 0.00 0.00 40 1010.0
20260502222053 57 189 0.0 2.0 0.00 0.00 0.00 39 1010.0
20260502221552 57 212 1.0 2.0 0.00 0.00 0.00 40 1010.0
20260502221052 57 203 2.0 3.0 0.00 0.00 0.00 38 1010.0
20260502220552 57 46 0.0 2.0 0.00 0.00 0.00 40 1010.0
20260502220053 57 248 2.0 3.0 0.00 0.00 0.00 38 1010.0
20260502215553 57 238 2.0 2.0 0.00 0.00 0.00 38 1010.0
20260502215052 58 214 0.0 1.0 0.00 0.00 0.00 39 1010.0
20260502214552 58 194 1.0 2.0 0.00 0.00 0.00 39 1010.0
20260502214052 58 197 2.0 3.0 0.00 0.00 0.00 40 1010.0
20260502213553 58 0 0.0 0.0 0.00 0.00 0.00 40 1010.0
20260502213053 58 78 0.0 1.0 0.00 0.00 0.00 41 1010.0
20260502212552 58 0 0.0 0.0 0.00 0.00 0.00 39 1010.0
20260502212053 58 177 1.0 2.0 0.00 0.00 0.00 38 1010.0
20260502211552 58 52 0.0 0.0 0.00 0.00 0.00 39 1010.0
20260502211052 58 0 0.0 0.0 0.00 0.00 0.00 39 1010.0
20260502210553 58 285 0.0 1.0 0.00 0.00 0.00 38 1010.0
20260502210052 58 211 0.0 1.0 0.00 0.00 0.00 39 1010.0
20260502205553 59 111 0.0 1.0 0.00 0.00 0.00 38 1010.0
20260502205053 59 0 0.0 0.0 0.00 0.00 0.00 39 1010.0
20260502204552 59 292 1.0 2.0 0.00 0.00 0.00 39 1010.0
20260502204052 59 152 1.0 2.0 0.00 0.00 0.00 39 1010.0
20260502203553 59 74 0.0 1.0 0.00 0.00 0.00 38 1010.0
20260502203052 60 200 2.0 2.0 0.00 0.00 0.00 37 1010.0
20260502202552 61 231 2.0 5.0 0.00 0.00 0.00 36 1010.0
20260502202053 61 83 2.0 3.0 0.00 0.00 0.00 37 1010.0
20260502201553 61 0 0.0 0.0 0.00 0.00 0.00 37 1010.0
20260502201052 61 233 1.0 3.0 0.00 0.00 0.00 36 1010.0
20260502200552 60 222 1.0 3.0 0.00 0.00 0.00 36 1010.0
20260502200053 60 331 1.0 2.0 0.00 0.00 0.00 37 1010.0
20260502195552 59 75 1.0 2.0 0.00 0.00 0.00 37 1010.0
20260502195052 59 243 1.0 3.0 0.00 0.00 0.00 39 1010.0
20260502194552 58 197 1.0 3.0 0.00 0.00 0.00 41 1010.0
20260502194052 58 214 1.0 3.0 0.00 0.00 0.00 39 1010.0
20260502193552 58 267 1.0 3.0 0.00 0.00 0.00 40 1010.0
20260502193052 59 103 1.0 2.0 0.00 0.00 0.00 41 1011.0
20260502192553 59 256 2.0 3.0 0.00 0.00 0.00 41 1011.0
20260502192053 59 193 0.0 2.0 0.00 0.00 0.00 38 1011.0
20260502191552 59 252 0.0 2.0 0.00 0.00 0.00 42 1011.0
20260502191052 58 281 1.0 2.0 0.00 0.00 0.00 42 1011.0
20260502190552 58 117 2.0 4.0 0.00 0.00 0.00 40 1011.0
20260502190052 58 111 1.0 3.0 0.00 0.00 0.00 43 1011.0
20260502185553 58 105 1.0 3.0 0.00 0.00 0.00 42 1011.0
20260502185052 57 14 1.0 2.0 0.00 0.00 0.00 43 1011.0
20260502184553 57 246 2.0 4.0 0.00 0.00 0.00 42 1011.0
20260502184052 57 0 0.0 0.0 0.00 0.00 0.00 44 1011.0
20260502183553 57 80 0.0 2.0 0.00 0.00 0.00 43 1011.0
20260502183052 57 268 0.0 2.0 0.00 0.00 0.00 43 1011.0
20260502182552 57 178 0.0 1.0 0.00 0.00 0.00 42 1011.0
20260502182053 56 282 2.0 4.0 0.00 0.00 0.00 42 1011.0
20260502181553 57 167 4.0 5.0 0.00 0.00 0.00 39 1011.0
20260502181053 57 59 1.0 2.0 0.00 0.00 0.00 43 1011.0
20260502180552 57 42 1.0 2.0 0.00 0.00 0.00 45 1011.0
20260502164053 56 144 1.0 4.0 0.00 0.00 0.00 48 1012.0
20260502163552 56 329 1.0 2.0 0.00 0.00 0.00 44 1012.0
20260502163052 56 206 0.0 2.0 0.00 0.00 0.00 49 1012.0
20260502162553 56 166 1.0 2.0 0.00 0.00 0.00 47 1012.0
20260502162053 56 204 3.0 6.0 0.00 0.00 0.00 47 1012.0
20260502161552 56 160 2.0 4.0 0.00 0.00 0.00 48 1012.0
20260502161052 55 220 0.0 1.0 0.00 0.00 0.00 50 1012.0
20260502160552 55 251 2.0 3.0 0.00 0.00 0.00 49 1012.0
20260502152053 53 290 0.0 2.0 0.00 0.00 0.00 55 1012.0
20260502151553 53 342 1.0 3.0 0.00 0.00 0.00 55 1012.0
20260502151053 53 329 3.0 4.0 0.00 0.00 0.00 57 1012.0
20260502150552 52 263 1.0 2.0 0.00 0.00 0.00 58 1012.0
20260502130552 50 136 1.0 2.0 0.00 0.00 0.00 77 1012.0
20260502123552 50 303 1.0 2.0 0.00 0.00 0.00 80 1012.0
20260502123053 50 100 1.0 2.0 0.00 0.00 0.00 80 1012.0
20260502122552 50 62 1.0 2.0 0.00 0.00 0.00 82 1012.0
20260502122053 50 231 0.0 1.0 0.00 0.00 0.00 83 1012.0
20260502121552 50 269 1.0 2.0 0.00 0.00 0.00 84 1012.0
20260502121052 49 244 1.0 2.0 0.00 0.00 0.00 84 1012.0
20260502120552 49 236 1.0 2.0 0.00 0.00 0.00 85 1012.0
20260502115553 49 200 0.0 0.0 0.00 0.00 0.00 85 1012.0
20260502115053 49 249 0.0 1.0 0.00 0.00 0.00 85 1012.0
20260502114552 48 249 2.0 2.0 0.00 0.00 0.00 86 1012.0
20260502114053 48 235 0.0 1.0 0.00 0.00 0.00 87 1012.0
20260502113553 48 244 1.0 1.0 0.00 0.00 0.00 87 1012.0
20260502113053 48 285 1.0 2.0 0.00 0.00 0.00 87 1012.0
20260502112553 47 265 0.0 1.0 0.00 0.00 0.00 88 1012.0
20260502112052 47 310 0.0 0.0 0.00 0.00 0.00 89 1012.0
20260502111552 47 208 0.0 0.0 0.00 0.00 0.00 90 1012.0
20260502111052 47 331 0.0 0.0 0.00 0.00 0.00 91 1012.0
20260502110553 47 291 1.0 2.0 0.00 0.00 0.00 91 1012.0
20260502110053 46 261 1.0 1.0 0.00 0.00 0.00 92 1012.0
20260502105552 46 271 0.0 0.0 0.00 0.00 0.00 92 1012.0
20260502105052 46 223 1.0 1.0 0.00 0.00 0.00 93 1012.0
20260502104553 46 250 1.0 1.0 0.00 0.00 0.00 93 1012.0
20260502104052 45 222 1.0 1.0 0.00 0.00 0.00 93 1012.0
20260502103552 45 261 0.0 0.0 0.00 0.00 0.00 92 1012.0
20260502103053 45 212 0.0 1.0 0.00 0.00 0.00 92 1012.0
20260502102552 45 0 0.0 0.0 0.00 0.00 0.00 92 1012.0
20260502102052 45 239 0.0 1.0 0.00 0.00 0.00 92 1012.0
20260502101552 46 337 0.0 0.0 0.00 0.00 0.00 92 1012.0
20260502101052 46 286 0.0 0.0 0.00 0.00 0.00 92 1012.0
20260502100552 46 276 1.0 1.0 0.00 0.00 0.00 91 1012.0
20260502091052 49 0 0.0 0.0 0.00 0.00 0.00 87 1011.0
20260502090552 49 180 0.0 0.0 0.00 0.00 0.00 87 1011.0
20260502071053 50 0 0.0 0.0 0.00 0.00 0.00 81 1011.0
20260502070552 50 0 0.0 0.0 0.00 0.00 0.00 80 1011.0
20260502070053 50 240 1.0 2.0 0.00 0.00 0.00 79 1011.0
20260502065552 50 254 1.0 2.0 0.00 0.00 0.00 80 1011.0
20260502065052 51 0 0.0 0.0 0.00 0.00 0.00 80 1011.0
20260502064552 51 0 0.0 0.0 0.00 0.00 0.00 78 1011.0
20260502064052 51 0 0.0 0.0 0.00 0.00 0.00 78 1011.0
20260502063553 51 237 0.0 0.0 0.00 0.00 0.00 77 1011.0
20260502063052 51 0 0.0 0.0 0.00 0.00 0.00 78 1011.0
20260502062552 52 262 1.0 2.0 0.00 0.00 0.00 77 1012.0
20260502062052 52 0 0.0 0.0 0.00 0.00 0.00 74 1011.0
20260502061552 52 0 0.0 0.0 0.00 0.00 0.00 73 1012.0
20260502061052 52 0 0.0 0.0 0.00 0.00 0.00 70 1012.0
20260502060552 52 233 1.0 2.0 0.00 0.00 0.00 69 1012.0
20260502060053 52 230 1.0 1.0 0.00 0.00 0.00 69 1012.0
20260502055552 51 226 1.0 1.0 0.00 0.00 0.00 69 1012.0
20260502055052 51 226 0.0 1.0 0.00 0.00 0.00 71 1012.0
20260502054552 51 0 0.0 0.0 0.00 0.00 0.00 71 1012.0
20260502054052 51 220 0.0 1.0 0.00 0.00 0.00 72 1012.0
20260502053552 51 0 0.0 0.0 0.00 0.00 0.00 72 1012.0
20260502053052 51 246 0.0 0.0 0.00 0.00 0.00 74 1012.0
20260502052552 51 231 1.0 2.0 0.00 0.00 0.00 72 1012.0
20260502052053 51 281 1.0 1.0 0.00 0.00 0.00 74 1012.0
20260502051552 51 213 0.0 0.0 0.00 0.00 0.00 75 1012.0
20260502051052 51 237 1.0 2.0 0.00 0.00 0.00 73 1012.0
20260502050553 51 255 1.0 2.0 0.00 0.00 0.00 73 1012.0
20260502050053 51 0 0.0 0.0 0.00 0.00 0.00 74 1012.0
20260502045552 51 277 1.0 1.0 0.00 0.00 0.00 75 1012.0
20260502045052 51 210 0.0 1.0 0.00 0.00 0.00 76 1012.0
20260502044553 51 0 0.0 0.0 0.00 0.00 0.00 76 1012.0
20260502044052 51 272 0.0 1.0 0.00 0.00 0.00 76 1012.0
20260502043552 51 278 0.0 1.0 0.00 0.00 0.00 76 1012.0
20260502043052 51 267 1.0 1.0 0.00 0.00 0.00 76 1012.0
20260502042553 51 0 0.0 0.0 0.00 0.00 0.00 75 1012.0
20260502042052 51 212 0.0 1.0 0.00 0.00 0.00 75 1012.0
20260502041552 52 0 0.0 0.0 0.00 0.00 0.00 75 1012.0
20260502041052 52 259 0.0 1.0 0.00 0.00 0.00 74 1012.0
20260502040552 52 265 0.0 1.0 0.00 0.00 0.00 74 1012.0
20260502040053 52 200 0.0 0.0 0.00 0.00 0.00 73 1012.0
20260502035552 52 0 0.0 0.0 0.00 0.00 0.00 74 1012.0
20260502035052 52 257 0.0 1.0 0.00 0.00 0.00 74 1012.0
20260502034553 52 253 0.0 0.0 0.00 0.00 0.00 74 1012.0
20260502034053 52 273 1.0 2.0 0.00 0.00 0.00 74 1012.0
20260502033552 52 178 0.0 0.0 0.00 0.00 0.00 73 1012.0
20260502033052 52 268 0.0 1.0 0.00 0.00 0.00 73 1012.0
20260502032553 52 0 0.0 0.0 0.00 0.00 0.00 73 1012.0
20260502032052 52 0 0.0 0.0 0.00 0.00 0.00 73 1012.0
20260502031553 53 264 1.0 1.0 0.00 0.00 0.00 72 1012.0
20260502031053 53 227 0.0 1.0 0.00 0.00 0.00 73 1012.0
20260502030554 52 255 0.0 0.0 0.00 0.00 0.00 72 1012.0
20260502030052 52 242 1.0 1.0 0.00 0.00 0.00 72 1012.0
20260502025552 52 222 1.0 2.0 0.00 0.00 0.00 73 1012.0
20260502025052 52 273 1.0 1.0 0.00 0.00 0.00 73 1012.0
20260502024552 52 215 0.0 1.0 0.00 0.00 0.00 75 1012.0
20260502024052 52 229 1.0 2.0 0.00 0.00 0.00 75 1012.0
20260502023552 52 275 1.0 2.0 0.00 0.00 0.00 75 1012.0
20260502023052 52 309 0.0 1.0 0.00 0.00 0.00 74 1012.0
20260502022553 52 246 0.0 1.0 0.00 0.00 0.00 74 1012.0
20260502022053 51 284 0.0 0.0 0.00 0.00 0.00 74 1012.0
20260502021552 51 240 0.0 1.0 0.00 0.00 0.00 74 1012.0
20260502021052 51 249 0.0 1.0 0.00 0.00 0.00 74 1012.0
20260502020552 51 230 0.0 1.0 0.00 0.00 0.00 74 1012.0
20260502020052 51 245 0.0 2.0 0.00 0.00 0.00 74 1012.0
20260502015552 51 38 0.0 1.0 0.00 0.00 0.00 73 1012.0
20260502015053 51 198 0.0 1.0 0.00 0.00 0.00 72 1012.0
20260502014552 51 263 1.0 2.0 0.00 0.00 0.00 72 1012.0
20260502014052 51 266 0.0 1.0 0.00 0.00 0.00 72 1012.0
20260502013552 51 273 1.0 2.0 0.00 0.00 0.00 72 1012.0
20260502013054 51 263 0.0 1.0 0.00 0.00 0.00 72 1012.0
20260502012552 51 262 0.0 0.0 0.00 0.00 0.00 72 1012.0
20260502012053 51 234 0.0 1.0 0.00 0.00 0.00 71 1012.0
20260502011553 52 234 0.0 1.0 0.00 0.00 0.00 70 1012.0
20260502011053 52 232 0.0 1.0 0.00 0.00 0.00 70 1011.0
20260502010552 52 281 0.0 1.0 0.00 0.00 0.00 70 1011.0
20260502010052 53 265 0.0 1.0 0.00 0.00 0.00 69 1011.0
20260502005553 53 214 0.0 1.0 0.00 0.00 0.00 68 1011.0
20260502005052 54 0 0.0 0.0 0.00 0.00 0.00 66 1011.0
20260502004553 54 212 0.0 1.0 0.00 0.00 0.00 65 1011.0
20260502004053 55 271 0.0 2.0 0.00 0.00 0.00 64 1011.0
20260502003553 55 0 0.0 0.0 0.00 0.00 0.00 63 1011.0
20260502003052 56 0 0.0 0.0 0.00 0.00 0.00 61 1011.0
20260502002552 56 0 0.0 0.0 0.00 0.00 0.00 60 1011.0
20260502002053 57 278 0.0 1.0 0.00 0.00 0.00 59 1011.0
20260502001552 57 0 0.0 0.0 0.00 0.00 0.00 58 1011.0
20260502001052 58 0 0.0 0.0 0.00 0.00 0.00 56 1011.0